User: anonymous   Login
Location: Unspecified
(0.0000°N, 0.0000°E)
Time: 09:26:24
(UTC+00:00)
Language:

E-STAR-II - Orbit

View from above orbital plane
View from above orbital plane
View from above satellite
View from above satellite

Ground track
Ground track

The orbit data is extracted from the following two-line orbital elements,

1 41459U 16025D   17328.07647443  .00003504  00000-0  18677-3 0  9997
2 41459  98.1667  14.6464 0174157 115.3891 246.5513 15.03755151 86597
Epoch (UTC): 24 November 2017 01:50:07
Eccentricity: 0.0174157
inclination: 98.1667°
perigee height: 434 km
apogee height: 676 km
right ascension of ascending node: 14.6464°
argument of perigee: 115.3891°
revolutions per day: 15.03755151
mean anomaly at epoch: 246.5513°
orbit number at epoch: 8659

The dashed part of the orbit path shows where the satellite is in the earth's shadow,  

DLR